Regional Weather Roundup
Issued by NWS

Home | Current Version | Previous Version | Text Only | Print | Product List | Glossary Off
Versions: 1 2 3 4 5 6 7 8 9 10 11 12 13 14 15 16 17 18 19 20 21 22 23 24 25 26 27 28 29 30 31 32 33 34 35 36 37 38 39 40 41 42 43 44 45 46 47 48 49 50

000
ASUS44 KMEG 230510
RWRTN
TENNESSEE HOURLY STATE WEATHER ROUNDUP
NATIONAL WEATHER SERVICE MEMPHIS TN
1200 AM CDT SAT MAY 23 2015

TNZ002-004-019-021-049-052-054-088>092-230600-
WEST TENNESSEE

CITY           SKY/WX    TMP DP  RH WIND       PRES   REMARKS
MEMPHIS INTL   MOCLDY    66  48  52 E6        30.24S
NWS MEMPHIS      N/A     57 N/A N/A MISG        N/A
JACKSON        CLEAR     52  49  89 CALM      30.25F
DYERSBURG      CLEAR     57  43  58 NE3       30.26S
PARIS          CLEAR     54  50  87 CALM      30.27S
LEXINGTON      CLEAR     52  50  93 CALM      30.25F
$$

TNZ008-025-027-028-033-062-065-066-230600-
NORTH MIDDLE TENNESSEE

CITY           SKY/WX    TMP DP  RH WIND       PRES   REMARKS
NASHVILLE      MOCLDY    59  49  69 CALM      30.28S
CLARKSVILLE    MOCLDY    59  51  75 CALM      30.27F
SMYRNA         PTCLDY    54  51  89 CALM      30.29R
COOKEVILLE     CLEAR     50  48  93 CALM      30.29S
CROSSVILLE     PTCLDY    52  46  80 CALM      30.33R
$$

TNZ061-075-076-078-094-096-097-230600-
SOUTH MIDDLE TENNESSEE

CITY           SKY/WX    TMP DP  RH WIND       PRES   REMARKS
FAYETTEVILLE   CLEAR    N/A N/A N/A MISG      30.26F
TULLAHOMA      CLEAR     48  45  87 CALM      30.29S
WINCHESTER     CLEAR     52  48  87 CALM      30.28S
MCMINNVILLE    CLEAR     52  48  87 NE6       30.28F
COLUMBIA       CLEAR     52  50  93 CALM      30.26S
SHELBYVILLE    CLEAR     54  48  82 CALM      30.28S
$$

TNZ017-018-042-046-047-230600-
NORTHEAST TENNESSEE

CITY           SKY/WX    TMP DP  RH WIND       PRES   REMARKS
TRI CITIES     PTCLDY    49  45  86 CALM      30.34R
ELIZABETHTON   CLEAR     46  43  87 CALM      30.35R
$$

TNZ012-013-036-069-073-074-230600-
CENTRAL EAST TENNESSEE

CITY           SKY/WX    TMP DP  RH WIND       PRES   REMARKS
KNOXVILLE      MOCLDY    54  47  77 CALM      30.28F
OAK RIDGE      PTCLDY    54  46  74 CALM      30.32S
GATLINBURG     CLEAR     50  46  87 CALM      30.31R
MORRISTOWN     CLEAR     54  48  82 NE3       30.32S
$$

TNZ083-085-099-230600-
SOUTHEAST TENNESSEE

CITY           SKY/WX    TMP DP  RH WIND       PRES   REMARKS
CHATTANOOGA    CLEAR     55  50  83 CALM      30.28R
$$

SKY/WX REPORTED AS FAIR MEANS FEW OR NO CLOUDS BELOW
12 THOUSAND FEET.



USA.gov is the U.S. government's official web portal to all federal, state and local government web resources and services.